Location: Arbon
(43.0005°N, 0.7472°E)
Time: 19:20:49
(UTC+00:00)

ATLAS 3B R/B - Pass Details

Date: 07 August 2020
Orbit: 1016 x 1179 km, 63.8° (Epoch: 22 September)

Event Time Altitude Azimuth Distance (km) Brightness Sun altitude
Exits shadow 01:40:58 12° 281° (W) 2,691 4.6 -26.5°
Maximum altitude 01:45:35 23° 329° (NNW) 2,041 4.4 -26.2°
Drops below altitude 10° 01:50:43 10° 19° (NNE) 2,848 5.9 -25.7°
Sets 01:54:03 0° 34° (NE) 3,826 7.0 -25.4°
